Weather History for Cando, ND

Change the Weather History Date:

Wednesday, December 5, 2012

  Actual Average (KDVL) Record (KDVL)
Temperature  
Mean Temperature 25 °F -  
Max Temperature 35 °F 25 °F 49 °F (1965)
Min Temperature 15 °F 10 °F -20 °F (1950)
Degree Days  
Heating Degree Days 40    
Moisture  
Dew Point 21 °F    
Average Humidity 87    
Maximum Humidity 93    
Minimum Humidity 80    
Precipitation  
Precipitation 0.00 in - - ()
Sea Level Pressure  
Sea Level Pressure 29.81 in    
Wind  
Wind Speed 17 mph (South)    
Max Wind Speed 25 mph    
Max Gust Speed 31 mph    
Visibility 10 miles    
Events      
Averages and records for this station are not official NWS values.
T = Trace of Precipitation, MM = Missing Value Source: NWS Daily Summary

Daily Weather History Graph

Daily Weather History Graph

Search for Another Location

Airport:

Trip Planner

Search our weather history database for the weather conditions in past years. The results will help you decide how hot, cold, wet, or windy it might be!

Date:

Astronomy

Dec. 05, 2012 Rise Set
Actual Time 8:13 AM CST 4:42 PM CST
Civil Twilight 7:36 AM CST 5:18 PM CST
Nautical Twilight 6:57 AM CST 5:58 PM CST
Astronomical Twilight 6:19 AM CST 6:36 PM CST
Moon 11:58 PM CST (12/5) 12:14 PM CST (12/5)
Length of Visible Light 9h 42m
Length of Day
8h 29m
Waning Gibbous, 59% of the Moon is Illuminated
Dec 5
Waning Gibbous
Dec 6
Last Quarter
Dec 13
New
Dec 19
First Quarter
Dec 28
Full

Hourly Weather History & Observations

Time (CST) Temp. Windchill Dew Point Humidity Pressure Visibility Wind Dir Wind Speed Gust Speed Precip Events Conditions
12:15 AM 15.8 °F 0.3 °F 12.2 °F 86% 30.21 in 10.0 mi SE 16.1 mph - N/A   Mostly Cloudy
12:35 AM 15.8 °F -0.2 °F 14.0 °F 93% 30.21 in 10.0 mi SSE 17.3 mph - N/A   Mostly Cloudy
12:55 AM 15.8 °F 0.3 °F 14.0 °F 93% 30.20 in 10.0 mi SSE 16.1 mph - N/A   Overcast
1:15 AM 15.8 °F 0.3 °F 14.0 °F 93% 30.18 in 10.0 mi SSE 16.1 mph - N/A   Overcast
1:55 AM 17.6 °F 1.3 °F 14.0 °F 86% 30.16 in 10.0 mi SSE 19.6 mph - N/A   Overcast
2:15 AM 15.8 °F -1.1 °F 14.0 °F 93% 30.15 in 10.0 mi SE 19.6 mph - N/A   Overcast
2:35 AM 15.8 °F -0.6 °F 14.0 °F 93% 30.15 in 10.0 mi SSE 18.4 mph - N/A   Overcast
2:55 AM 15.8 °F -0.2 °F 14.0 °F 93% 30.15 in 10.0 mi SSE 17.3 mph - N/A   Overcast
3:15 AM 15.8 °F -0.6 °F 14.0 °F 93% 30.14 in 10.0 mi SSE 18.4 mph - N/A   Overcast
3:35 AM 15.8 °F -0.6 °F 14.0 °F 93% 30.11 in 10.0 mi SSE 18.4 mph 23.0 mph N/A   Scattered Clouds
3:55 AM 15.8 °F -0.6 °F 14.0 °F 93% 30.10 in 10.0 mi SSE 18.4 mph - N/A   Clear
4:15 AM 15.8 °F -1.5 °F 14.0 °F 93% 30.06 in 10.0 mi SSE 20.7 mph - N/A   Clear
4:35 AM 15.8 °F -1.9 °F 14.0 °F 93% 30.05 in 10.0 mi SSE 21.9 mph - N/A   Clear
4:55 AM 15.8 °F -1.5 °F 14.0 °F 93% 30.03 in 10.0 mi SSE 20.7 mph 25.3 mph N/A   Clear
5:15 AM 17.6 °F 3.7 °F 14.0 °F 86% 30.04 in 10.0 mi SSE 13.8 mph - N/A   Clear
5:35 AM 17.6 °F 3.2 °F 14.0 °F 86% 30.04 in 10.0 mi SSE 15.0 mph - N/A   Clear
5:55 AM 17.6 °F 3.2 °F 14.0 °F 86% 30.03 in 10.0 mi SSE 15.0 mph - N/A   Clear
6:15 AM 17.6 °F 4.3 °F 14.0 °F 86% 30.01 in 10.0 mi SE 12.7 mph - N/A   Clear
6:35 AM 17.6 °F 3.2 °F 14.0 °F 86% 30.00 in 10.0 mi SE 15.0 mph - N/A   Clear
6:55 AM 17.6 °F 3.7 °F 14.0 °F 86% 30.00 in 10.0 mi SSE 13.8 mph - N/A   Clear
8:35 AM 19.4 °F 6.0 °F 15.8 °F 86% 29.95 in 10.0 mi SE 13.8 mph - N/A   Clear
8:55 AM 19.4 °F 5.5 °F 15.8 °F 86% 29.93 in 10.0 mi SSE 15.0 mph - N/A   Clear
9:15 AM 19.4 °F 3.6 °F 15.8 °F 86% 29.91 in 10.0 mi SSE 19.6 mph 25.3 mph N/A   Clear
9:35 AM 19.4 °F 3.2 °F 17.6 °F 93% 29.89 in 10.0 mi SSE 20.7 mph 25.3 mph N/A   Clear
9:55 AM 19.4 °F 3.6 °F 17.6 °F 93% 29.88 in 10.0 mi SSE 19.6 mph - N/A   Partly Cloudy
10:15 AM 21.2 °F 5.6 °F 17.6 °F 86% 29.88 in 10.0 mi SSE 20.7 mph - N/A   Mostly Cloudy
10:35 AM 23.0 °F 8.3 °F 19.4 °F 86% 29.86 in 10.0 mi SSE 19.6 mph 26.5 mph N/A   Overcast
10:55 AM 24.8 °F 10.0 °F 19.4 °F 80% 29.84 in 10.0 mi SSE 21.9 mph - N/A   Overcast
11:15 AM 24.8 °F 10.7 °F 19.4 °F 80% 29.82 in 10.0 mi South 19.6 mph 28.8 mph N/A   Scattered Clouds
11:35 AM 24.8 °F 10.7 °F 21.2 °F 86% 29.81 in 10.0 mi South 19.6 mph 23.0 mph N/A   Clear
11:55 AM 24.8 °F 11.1 °F 21.2 °F 86% 29.80 in 10.0 mi South 18.4 mph 26.5 mph N/A   Clear
12:15 PM 26.6 °F 11.7 °F 21.2 °F 80% 29.77 in 10.0 mi SSE 24.2 mph 27.6 mph N/A   Clear
12:35 PM 26.6 °F 12.7 °F 23.0 °F 86% 29.77 in 10.0 mi South 20.7 mph 25.3 mph N/A   Clear
1:15 PM 26.6 °F 13.4 °F 23.0 °F 86% 29.73 in 10.0 mi South 18.4 mph - N/A   Clear
1:35 PM 28.4 °F 15.4 °F 23.0 °F 80% 29.71 in 10.0 mi South 19.6 mph - N/A   Clear
1:55 PM 28.4 °F 15.8 °F 23.0 °F 80% 29.70 in 10.0 mi SSE 18.4 mph 23.0 mph N/A   Clear
2:15 PM 28.4 °F 16.6 °F 23.0 °F 80% 29.69 in 10.0 mi South 16.1 mph 21.9 mph N/A   Clear
2:35 PM 28.4 °F 15.4 °F 24.8 °F 86% 29.68 in 10.0 mi South 19.6 mph - N/A   Clear
2:55 PM 28.4 °F 16.6 °F 24.8 °F 86% 29.67 in 10.0 mi South 16.1 mph - N/A   Clear
3:15 PM 28.4 °F 17.0 °F 24.8 °F 86% 29.65 in 10.0 mi SSE 15.0 mph - N/A   Clear
3:35 PM 28.4 °F 16.6 °F 24.8 °F 86% 29.64 in 10.0 mi SSE 16.1 mph - N/A   Clear
3:55 PM 30.2 °F 18.5 °F 24.8 °F 80% 29.64 in 10.0 mi South 17.3 mph - N/A   Scattered Clouds
4:15 PM 30.2 °F 18.1 °F 24.8 °F 80% 29.63 in 10.0 mi South 18.4 mph - N/A   Mostly Cloudy
4:35 PM 30.2 °F 18.1 °F 26.6 °F 86% 29.61 in 10.0 mi South 18.4 mph - N/A   Mostly Cloudy
4:55 PM 30.2 °F 18.1 °F 26.6 °F 86% 29.61 in 10.0 mi SSE 18.4 mph - N/A   Overcast
5:15 PM 30.2 °F 18.1 °F 26.6 °F 86% 29.61 in 10.0 mi South 18.4 mph - N/A   Overcast
5:35 PM 30.2 °F 17.8 °F 26.6 °F 86% 29.57 in 10.0 mi SSE 19.6 mph 26.5 mph N/A   Overcast
5:55 PM 32.0 °F 21.6 °F 26.6 °F 80% 29.60 in 10.0 mi South 15.0 mph - N/A   Mostly Cloudy
6:15 PM 32.0 °F 23.0 °F 26.6 °F 80% 29.60 in 10.0 mi South 11.5 mph - N/A   Overcast
6:35 PM 32.0 °F 23.0 °F 26.6 °F 80% 29.59 in 10.0 mi South 11.5 mph - N/A   Overcast
6:55 PM 32.0 °F 23.0 °F 26.6 °F 80% 29.60 in 10.0 mi South 11.5 mph - N/A   Overcast
7:15 PM 30.2 °F 21.3 °F 26.6 °F 86% 29.59 in 10.0 mi South 10.4 mph - N/A   Mostly Cloudy
7:35 PM 32.0 °F 22.5 °F 26.6 °F 80% 29.59 in 10.0 mi South 12.7 mph - N/A   Mostly Cloudy
7:55 PM 30.2 °F 20.8 °F 26.6 °F 86% 29.59 in 10.0 mi South 11.5 mph - N/A   Mostly Cloudy
8:15 PM 32.0 °F 24.2 °F 26.6 °F 80% 29.58 in 10.0 mi SSW 9.2 mph - N/A   Mostly Cloudy
8:35 PM 30.2 °F 21.9 °F 26.6 °F 86% 29.58 in 10.0 mi SSW 9.2 mph - N/A   Scattered Clouds
8:55 PM 30.2 °F 20.8 °F 26.6 °F 86% 29.57 in 10.0 mi SSW 11.5 mph - N/A   Clear
9:15 PM 30.2 °F 21.9 °F 26.6 °F 86% 29.57 in 10.0 mi SSW 9.2 mph - N/A   Clear
9:35 PM 28.4 °F 19.7 °F 26.6 °F 93% 29.57 in 10.0 mi SW 9.2 mph - N/A   Partly Cloudy
9:55 PM 30.2 °F 19.8 °F 26.6 °F 86% 29.56 in 10.0 mi SW 13.8 mph - N/A   Clear
10:15 PM 32.0 °F 20.8 °F 28.4 °F 87% 29.57 in 10.0 mi WSW 17.3 mph - N/A   Scattered Clouds
10:35 PM 32.0 °F 20.5 °F 28.4 °F 87% 29.57 in 10.0 mi WSW 18.4 mph - N/A   Partly Cloudy
10:55 PM 33.8 °F 22.5 °F 30.2 °F 87% 29.57 in 10.0 mi West 19.6 mph - N/A   Clear
11:15 PM 35.6 °F 24.8 °F 32.0 °F 87% 29.57 in 10.0 mi West 19.6 mph 28.8 mph N/A   Clear
11:35 PM 35.6 °F 23.4 °F 32.0 °F 87% 29.57 in 10.0 mi West 25.3 mph 31.1 mph N/A   Clear
11:55 PM 33.8 °F 21.9 °F 32.0 °F 93% 29.60 in 10.0 mi West 21.9 mph 27.6 mph N/A   Mostly Cloudy